GW2216 Weather Reports


time (UTC)temp
F
wind
direction
speed
knots
gust
knots
rain 1hr
in
rain 24hr
in
rain mn
in
humidity
%
barometer
mb
20260505111536 44 0 0.0 0.0 0.01 0.44 0.01 94 1011.0
20260505101532 43 249 0.9 2.6 0.00 0.43 0.00 93 1011.3
20260505100041 43 0 0.0 2.6 0.00 0.43 0.00 94 1011.4
20260505094529 42 0 0.0 0.0 0.00 0.43 0.00 94 1011.5
20260505093029 42 0 0.0 0.0 0.00 0.43 0.00 93 1011.6
20260505091547 42 0 0.0 1.7 0.00 0.43 0.00 93 1011.6
20260505090049 43 0 0.0 0.0 0.00 0.43 0.00 93 1011.6
20260505084537 43 0 0.0 0.0 0.00 0.43 0.00 93 1011.8
20260505083039 43 0 0.0 2.6 0.00 0.43 0.00 93 1012.1
20260505081548 44 0 0.0 0.0 0.00 0.43 0.00 92 1012.2
20260505080039 44 94 0.0 2.6 0.00 0.43 0.00 92 1011.9
20260505074530 43 242 1.7 3.5 0.01 0.43 0.00 92 1011.5
20260505073030 43 228 1.7 3.5 0.02 0.43 0.00 92 1012.3
20260505071531 43 0 0.0 0.0 0.02 0.43 0.00 92 1012.4
20260505070031 43 0 0.0 3.5 0.02 0.43 0.00 91 1012.1
20260505064533 43 146 1.7 5.2 0.01 0.42 0.42 92 1011.7
20260505063039 43 179 2.6 4.3 0.00 0.41 0.41 92 1011.4
20260505061534 43 138 1.7 5.2 0.01 0.41 0.41 92 1011.5
20260505060032 43 147 2.6 6.1 0.01 0.41 0.41 92 1011.4
20260505054532 43 208 2.6 5.2 0.01 0.41 0.41 92 1011.5
20260505053032 43 180 2.6 4.3 0.01 0.41 0.41 92 1011.6
20260505051532 43 0 0.0 2.6 0.00 0.40 0.40 92 1011.9
20260505041531 43 177 0.0 6.1 0.04 0.40 0.40 92 1011.5
20260505040038 44 352 4.3 9.6 0.11 0.40 0.40 91 1011.6
20260505034532 45 74 0.9 3.5 0.11 0.40 0.40 91 1011.0
20260505033040 44 217 6.1 12.2 0.10 0.39 0.39 91 1009.9
20260505031529 44 219 4.3 7.0 0.06 0.35 0.35 91 1011.4
20260505030029 45 0 0.9 4.3 0.00 0.29 0.29 90 1011.6
20260505024552 45 0 0.0 4.3 0.01 0.29 0.29 91 1011.5
20260505023037 45 72 0.9 7.8 0.04 0.29 0.29 90 1010.9
20260505021544 45 104 2.6 8.7 0.10 0.29 0.29 89 1010.7
20260505020030 46 273 0.9 19.1 0.15 0.29 0.29 83 1010.0
20260505014531 46 203 7.8 13.9 0.20 0.28 0.28 86 1009.6
20260505013029 45 238 4.3 11.3 0.20 0.24 0.24 89 1012.1
20260505011547 45 188 8.7 13.9 0.16 0.19 0.19 88 1011.7
20260505010032 45 231 8.7 13.9 0.12 0.14 0.14 87 1011.7
20260505004540 46 216 5.2 12.2 0.05 0.07 0.07 85 1011.9
20260505003029 47 213 7.0 12.2 0.02 0.04 0.04 82 1010.8
20260505001531 49 138 4.3 7.8 0.01 0.03 0.03 81 1010.3
20260505000029 50 200 6.1 13.0 0.00 0.02 0.02 76 1009.9
20260504234530 51 210 7.8 14.8 0.00 0.02 0.02 70 1009.7
20260504233030 52 182 5.2 13.9 0.00 0.02 0.02 67 1010.0
20260504231532 54 202 7.8 13.0 0.00 0.02 0.02 66 1010.0
20260504230032 53 186 5.2 13.9 0.00 0.02 0.02 64 1010.2
20260504224529 54 198 7.8 19.1 0.00 0.02 0.02 62 1010.1
20260504223036 56 198 5.2 10.4 0.00 0.02 0.02 56 1010.3
20260504221536 58 169 5.2 9.6 0.00 0.02 0.02 58 1010.2
20260504220030 55 198 5.2 10.4 0.00 0.02 0.02 62 1010.4
20260504214532 55 209 3.5 11.3 0.00 0.02 0.02 65 1010.6
20260504213032 55 192 7.0 15.6 0.00 0.02 0.02 63 1011.0
20260504211529 56 219 7.8 16.5 0.00 0.02 0.02 63 1011.5
20260504210029 55 146 6.1 10.4 0.01 0.02 0.02 67 1011.7
20260504204547 54 188 6.1 13.0 0.01 0.02 0.02 75 1011.4
20260504203033 51 214 9.6 14.8 0.01 0.02 0.02 84 1011.6
20260504201529 49 233 9.6 17.4 0.01 0.02 0.02 81 1011.8
20260504200036 51 190 8.7 13.9 0.00 0.01 0.01 77 1011.9
20260504194537 52 200 3.5 7.0 0.01 0.01 0.01 75 1012.0
20260504193031 51 123 0.9 5.2 0.01 0.01 0.01 82 1012.1
20260504191536 51 107 0.0 6.1 0.01 0.01 0.01 82 1012.0
20260504190036 51 119 2.6 7.0 0.01 0.01 0.01 81 1012.3
20260504184535 50 117 0.0 3.5 0.00 0.00 0.00 80 1012.2
20260504183032 50 142 2.6 6.1 0.00 0.00 0.00 80 1012.2
20260504181529 50 138 1.7 4.3 0.00 0.00 0.00 82 1012.2
20260504180030 51 0 0.0 4.3 0.00 0.00 0.00 79 1012.0
20260504174532 51 291 5.2 9.6 0.00 0.00 0.00 76 1011.9
20260504173031 50 315 0.0 4.3 0.00 0.00 0.00 77 1012.1
20260504171533 51 29 1.7 5.2 0.00 0.00 0.00 68 1012.3